| time (UTC) | temp C | wind direction | speed KPH | gust KPH | rain 1hr cm | rain 24hr cm | rain mn cm | humidity % | barometer mb |
| 20260505025435 | 21 | 125 | 3.2 | 6.4 | 0.00 | 0.03 | 0.03 | 41 | 1005.9 |
| 20260505024934 | 21 | 107 | 0.0 | 1.6 | 0.00 | 0.03 | 0.03 | 39 | 1005.7 |
| 20260505024431 | 21 | 16 | 6.4 | 9.7 | 0.00 | 0.03 | 0.03 | 38 | 1005.6 |
| 20260505023928 | 21 | 67 | 4.8 | 14.5 | 0.00 | 0.03 | 0.03 | 37 | 1005.4 |
| 20260505023425 | 21 | 64 | 1.6 | 14.5 | 0.00 | 0.03 | 0.03 | 36 | 1005.4 |
| 20260505022922 | 21 | 57 | 1.6 | 6.4 | 0.00 | 0.03 | 0.03 | 39 | 1005.1 |
| 20260505022421 | 22 | 75 | 0.0 | 0.0 | 0.00 | 0.03 | 0.03 | 38 | 1004.8 |
| 20260505021917 | 22 | 119 | 1.6 | 4.8 | 0.00 | 0.03 | 0.03 | 40 | 1004.6 |
| 20260505021413 | 22 | 98 | 1.6 | 3.2 | 0.00 | 0.03 | 0.03 | 38 | 1004.4 |
| 20260505020909 | 22 | 92 | 1.6 | 14.5 | 0.00 | 0.03 | 0.03 | 39 | 1004.1 |
| 20260505020405 | 22 | 18 | 3.2 | 4.8 | 0.00 | 0.03 | 0.03 | 39 | 1003.9 |
| 20260505015902 | 22 | 333 | 3.2 | 4.8 | 0.00 | 0.03 | 0.03 | 40 | 1003.8 |
| 20260505015359 | 22 | 317 | 0.0 | 11.3 | 0.00 | 0.03 | 0.03 | 44 | 1003.5 |
| 20260505014856 | 21 | 109 | 0.0 | 20.9 | 0.00 | 0.03 | 0.03 | 49 | 1003.3 |
| 20260505014353 | 21 | 144 | 0.0 | 0.0 | 0.00 | 0.03 | 0.03 | 51 | 1003.0 |
| 20260505013850 | 21 | 146 | 0.0 | 0.0 | 0.00 | 0.03 | 0.03 | 50 | 1002.8 |
| 20260505013347 | 22 | 146 | 0.0 | 0.0 | 0.00 | 0.03 | 0.03 | 46 | 1002.6 |
| 20260505012845 | 22 | 146 | 0.0 | 0.0 | 0.00 | 0.03 | 0.03 | 47 | 1002.6 |
| 20260505012343 | 22 | 146 | 0.0 | 0.0 | 0.00 | 0.03 | 0.03 | 46 | 1002.7 |
| 20260505011839 | 23 | 147 | 0.0 | 0.0 | 0.00 | 0.03 | 0.03 | 40 | 1002.6 |
| 20260505011336 | 23 | 147 | 0.0 | 0.0 | 0.00 | 0.03 | 0.03 | 39 | 1002.2 |
| 20260505010831 | 24 | 147 | 0.0 | 0.0 | 0.00 | 0.03 | 0.03 | 39 | 1002.5 |
| 20260505010327 | 25 | 147 | 0.0 | 0.0 | 0.00 | 0.03 | 0.03 | 41 | 1002.3 |
| 20260505005824 | 25 | 147 | 0.0 | 0.0 | 0.00 | 0.03 | 0.03 | 37 | 1002.3 |
| 20260505005321 | 25 | 146 | 0.0 | 0.0 | 0.00 | 0.03 | 0.03 | 38 | 1002.3 |
| 20260505004819 | 25 | 146 | 0.0 | 0.0 | 0.00 | 0.03 | 0.03 | 39 | 1002.3 |
| 20260505004315 | 26 | 163 | 0.0 | 1.6 | 0.00 | 0.03 | 0.03 | 38 | 1002.1 |
| 20260505003812 | 26 | 129 | 0.0 | 0.0 | 0.00 | 0.03 | 0.03 | 36 | 1002.1 |
| 20260505003309 | 26 | 141 | 0.0 | 0.0 | 0.00 | 0.03 | 0.03 | 36 | 1001.8 |
| 20260505002805 | 26 | 141 | 0.0 | 3.2 | 0.00 | 0.03 | 0.03 | 38 | 1002.1 |
| 20260505002304 | 26 | 170 | 0.0 | 1.6 | 0.00 | 0.03 | 0.03 | 37 | 1001.9 |
| 20260505001801 | 26 | 178 | 1.6 | 1.6 | 0.00 | 0.03 | 0.03 | 36 | 1001.9 |
| 20260505001257 | 27 | 208 | 1.6 | 1.6 | 0.00 | 0.03 | 0.03 | 36 | 1001.8 |
| 20260505000755 | 27 | 294 | 6.4 | 9.7 | 0.00 | 0.03 | 0.03 | 32 | 1001.8 |
| 20260505000252 | 27 | 277 | 4.8 | 4.8 | 0.00 | 0.03 | 0.03 | 39 | 1001.8 |
| 20260504235749 | 27 | 164 | 0.0 | 1.6 | 0.00 | 0.03 | 0.03 | 42 | 1001.9 |
| 20260504235245 | 28 | 183 | 1.6 | 3.2 | 0.00 | 0.03 | 0.03 | 42 | 1001.9 |
| 20260504234742 | 27 | 193 | 1.6 | 3.2 | 0.00 | 0.03 | 0.03 | 42 | 1001.9 |
| 20260504234240 | 27 | 183 | 3.2 | 3.2 | 0.00 | 0.03 | 0.03 | 42 | 1001.7 |
| 20260504233736 | 28 | 190 | 0.0 | 3.2 | 0.00 | 0.03 | 0.03 | 43 | 1001.8 |
| 20260504233232 | 27 | 249 | 1.6 | 3.2 | 0.00 | 0.03 | 0.03 | 43 | 1001.8 |
| 20260504232729 | 27 | 249 | 1.6 | 3.2 | 0.00 | 0.03 | 0.03 | 44 | 1001.7 |
| 20260504232226 | 27 | 176 | 0.0 | 3.2 | 0.00 | 0.03 | 0.03 | 45 | 1001.6 |
| 20260504231722 | 27 | 269 | 3.2 | 6.4 | 0.00 | 0.03 | 0.03 | 43 | 1001.6 |
| 20260504231219 | 26 | 212 | 3.2 | 3.2 | 0.00 | 0.03 | 0.03 | 43 | 1001.7 |
| 20260504230715 | 26 | 169 | 1.6 | 3.2 | 0.00 | 0.03 | 0.03 | 45 | 1001.6 |
| 20260504230214 | 26 | 169 | 4.8 | 6.4 | 0.00 | 0.03 | 0.03 | 45 | 1001.5 |
| 20260504225712 | 26 | 211 | 6.4 | 6.4 | 0.00 | 0.03 | 0.03 | 43 | 1001.7 |
| 20260504225208 | 26 | 186 | 4.8 | 9.7 | 0.00 | 0.03 | 0.03 | 43 | 1001.5 |
| 20260504224705 | 27 | 202 | 3.2 | 6.4 | 0.00 | 0.03 | 0.03 | 43 | 1001.5 |
| 20260504224203 | 27 | 172 | 3.2 | 6.4 | 0.00 | 0.03 | 0.03 | 45 | 1001.4 |
| 20260504223659 | 27 | 208 | 3.2 | 9.7 | 0.00 | 0.03 | 0.03 | 42 | 1001.6 |
| 20260504223154 | 27 | 147 | 4.8 | 9.7 | 0.00 | 0.03 | 0.03 | 40 | 1001.5 |
| 20260504222652 | 27 | 211 | 1.6 | 4.8 | 0.00 | 0.03 | 0.03 | 42 | 1001.5 |
| 20260504222148 | 27 | 199 | 3.2 | 3.2 | 0.00 | 0.03 | 0.03 | 42 | 1001.7 |
| 20260504221646 | 27 | 261 | 6.4 | 11.3 | 0.00 | 0.03 | 0.03 | 41 | 1001.5 |
| 20260504221143 | 26 | 247 | 4.8 | 9.7 | 0.00 | 0.03 | 0.03 | 43 | 1001.6 |
| 20260504220639 | 27 | 199 | 3.2 | 11.3 | 0.00 | 0.03 | 0.03 | 43 | 1001.5 |
| 20260504220137 | 28 | 210 | 4.8 | 9.7 | 0.00 | 0.03 | 0.03 | 40 | 1001.6 |
| 20260504215633 | 27 | 204 | 8.0 | 9.7 | 0.00 | 0.03 | 0.03 | 44 | 1001.4 |
| 20260504215131 | 28 | 216 | 3.2 | 6.4 | 0.00 | 0.03 | 0.03 | 41 | 1001.8 |
| 20260504214626 | 28 | 238 | 3.2 | 4.8 | 0.00 | 0.03 | 0.03 | 42 | 1001.6 |
| 20260504214123 | 27 | 218 | 4.8 | 4.8 | 0.00 | 0.03 | 0.03 | 43 | 1001.8 |
| 20260504213619 | 26 | 206 | 4.8 | 6.4 | 0.00 | 0.03 | 0.03 | 46 | 1001.7 |
| 20260504213116 | 27 | 180 | 6.4 | 9.7 | 0.00 | 0.03 | 0.03 | 44 | 1001.6 |
| 20260504212612 | 28 | 206 | 6.4 | 11.3 | 0.00 | 0.03 | 0.03 | 43 | 1001.6 |
| 20260504212110 | 28 | 190 | 11.3 | 16.1 | 0.00 | 0.03 | 0.03 | 42 | 1001.6 |
| 20260504211607 | 28 | 220 | 6.4 | 6.4 | 0.00 | 0.03 | 0.03 | 42 | 1001.7 |
| 20260504211103 | 28 | 190 | 4.8 | 6.4 | 0.00 | 0.03 | 0.03 | 40 | 1001.8 |
| 20260504210601 | 28 | 185 | 4.8 | 6.4 | 0.00 | 0.03 | 0.03 | 44 | 1001.6 |
| 20260504210057 | 28 | 200 | 3.2 | 4.8 | 0.00 | 0.03 | 0.03 | 40 | 1001.8 |
| 20260504205555 | 28 | 218 | 4.8 | 11.3 | 0.00 | 0.03 | 0.03 | 40 | 1001.8 |
| 20260504205052 | 27 | 187 | 3.2 | 9.7 | 0.00 | 0.03 | 0.03 | 44 | 1001.8 |
| 20260504204550 | 27 | 234 | 3.2 | 11.3 | 0.00 | 0.03 | 0.03 | 41 | 1001.9 |
| 20260504204049 | 27 | 218 | 4.8 | 12.9 | 0.00 | 0.03 | 0.03 | 44 | 1001.9 |
| 20260504203547 | 27 | 239 | 4.8 | 4.8 | 0.00 | 0.03 | 0.03 | 40 | 1002.1 |
| 20260504203044 | 27 | 184 | 1.6 | 3.2 | 0.00 | 0.03 | 0.03 | 42 | 1001.9 |
| 20260504202539 | 27 | 189 | 11.3 | 14.5 | 0.00 | 0.03 | 0.03 | 42 | 1002.0 |
| 20260504202037 | 28 | 198 | 6.4 | 9.7 | 0.00 | 0.03 | 0.03 | 45 | 1002.1 |
| 20260504201533 | 28 | 235 | 4.8 | 4.8 | 0.00 | 0.03 | 0.03 | 43 | 1002.2 |
| 20260504201032 | 28 | 227 | 8.0 | 11.3 | 0.00 | 0.03 | 0.03 | 41 | 1002.1 |
| 20260504200527 | 27 | 261 | 3.2 | 9.7 | 0.00 | 0.03 | 0.03 | 48 | 1002.2 |
| 20260504200024 | 27 | 273 | 8.0 | 11.3 | 0.00 | 0.03 | 0.03 | 40 | 1002.1 |
| 20260504195520 | 27 | 202 | 6.4 | 9.7 | 0.00 | 0.03 | 0.03 | 45 | 1002.2 |
| 20260504195017 | 27 | 166 | 4.8 | 6.4 | 0.00 | 0.03 | 0.03 | 45 | 1002.2 |
| 20260504194514 | 27 | 187 | 8.0 | 9.7 | 0.00 | 0.03 | 0.03 | 47 | 1002.6 |
| 20260504194009 | 27 | 167 | 6.4 | 11.3 | 0.00 | 0.03 | 0.03 | 43 | 1002.6 |
| 20260504193506 | 27 | 255 | 4.8 | 6.4 | 0.00 | 0.03 | 0.03 | 43 | 1002.5 |
| 20260504193005 | 27 | 239 | 6.4 | 9.7 | 0.00 | 0.03 | 0.03 | 43 | 1002.6 |
| 20260504192503 | 27 | 208 | 3.2 | 6.4 | 0.00 | 0.03 | 0.03 | 43 | 1002.5 |
| 20260504192001 | 27 | 160 | 6.4 | 11.3 | 0.00 | 0.03 | 0.03 | 44 | 1002.6 |
| 20260504191458 | 26 | 207 | 8.0 | 9.7 | 0.00 | 0.03 | 0.03 | 44 | 1002.7 |
| 20260504190954 | 27 | 199 | 3.2 | 11.3 | 0.00 | 0.03 | 0.03 | 44 | 1002.5 |
| 20260504190449 | 26 | 212 | 9.7 | 12.9 | 0.00 | 0.03 | 0.03 | 46 | 1002.7 |
| 20260504185946 | 26 | 200 | 3.2 | 12.9 | 0.00 | 0.03 | 0.03 | 42 | 1002.6 |
| 20260504185444 | 27 | 219 | 6.4 | 9.7 | 0.00 | 0.03 | 0.03 | 48 | 1002.7 |
| 20260504184939 | 27 | 266 | 3.2 | 4.8 | 0.00 | 0.03 | 0.03 | 41 | 1002.7 |
| 20260504184435 | 26 | 217 | 3.2 | 11.3 | 0.00 | 0.03 | 0.03 | 46 | 1002.9 |
| 20260504183931 | 26 | 194 | 3.2 | 4.8 | 0.00 | 0.03 | 0.03 | 44 | 1002.8 |
| 20260504183429 | 26 | 210 | 4.8 | 11.3 | 0.00 | 0.03 | 0.03 | 48 | 1002.8 |
| 20260504182927 | 26 | 201 | 4.8 | 9.7 | 0.00 | 0.03 | 0.03 | 47 | 1003.0 |
| 20260504182423 | 26 | 188 | 1.6 | 3.2 | 0.00 | 0.03 | 0.03 | 47 | 1002.7 |
| 20260504181921 | 26 | 190 | 8.0 | 14.5 | 0.00 | 0.03 | 0.03 | 49 | 1003.0 |
| 20260504181418 | 25 | 196 | 4.8 | 9.7 | 0.00 | 0.03 | 0.03 | 49 | 1003.0 |
| 20260504180916 | 25 | 210 | 3.2 | 11.3 | 0.00 | 0.03 | 0.03 | 48 | 1003.1 |
| 20260504180415 | 26 | 152 | 9.7 | 14.5 | 0.00 | 0.03 | 0.03 | 45 | 1003.0 |
| 20260504175913 | 26 | 223 | 6.4 | 9.7 | 0.00 | 0.03 | 0.03 | 45 | 1003.1 |
| 20260504175409 | 25 | 182 | 8.0 | 14.5 | 0.00 | 0.03 | 0.03 | 50 | 1003.0 |
| 20260504174907 | 25 | 195 | 3.2 | 9.7 | 0.00 | 0.03 | 0.03 | 47 | 1003.2 |
| 20260504174404 | 25 | 202 | 4.8 | 11.3 | 0.00 | 0.03 | 0.03 | 47 | 1003.0 |
| 20260504173902 | 25 | 248 | 6.4 | 11.3 | 0.00 | 0.03 | 0.03 | 45 | 1003.2 |
| 20260504173358 | 25 | 251 | 3.2 | 14.5 | 0.00 | 0.03 | 0.03 | 47 | 1003.2 |
| 20260504172855 | 25 | 173 | 12.9 | 16.1 | 0.00 | 0.03 | 0.03 | 46 | 1003.2 |
| 20260504172351 | 25 | 186 | 8.0 | 9.7 | 0.00 | 0.03 | 0.03 | 55 | 1003.1 |
| 20260504171847 | 25 | 225 | 4.8 | 9.7 | 0.00 | 0.03 | 0.03 | 46 | 1003.3 |
| 20260504171345 | 25 | 208 | 4.8 | 9.7 | 0.00 | 0.03 | 0.03 | 46 | 1003.4 |
| 20260504170842 | 25 | 190 | 4.8 | 6.4 | 0.00 | 0.03 | 0.03 | 47 | 1003.4 |
| 20260504170338 | 25 | 222 | 3.2 | 4.8 | 0.00 | 0.03 | 0.03 | 49 | 1003.5 |
| 20260504160257 | 23 | 184 | 6.4 | 9.7 | 0.00 | 0.03 | 0.03 | 51 | 1003.7 |
| 20260504150722 | 22 | 215 | 4.8 | 11.3 | 0.00 | 0.03 | 0.03 | 55 | 1003.8 |
| 20260504150219 | 22 | 181 | 6.4 | 6.4 | 0.00 | 0.03 | 0.03 | 56 | 1003.6 |
| 20260504141148 | 20 | 181 | 14.5 | 17.7 | 0.00 | 0.03 | 0.03 | 57 | 1004.1 |
| 20260504140645 | 20 | 213 | 8.0 | 11.3 | 0.00 | 0.03 | 0.03 | 57 | 1004.3 |
| 20260504140140 | 20 | 192 | 4.8 | 11.3 | 0.00 | 0.03 | 0.03 | 61 | 1004.3 |
| 20260504130609 | 17 | 191 | 6.4 | 9.7 | 0.00 | 0.03 | 0.03 | 71 | 1004.4 |
| 20260504130106 | 17 | 188 | 6.4 | 6.4 | 0.00 | 0.03 | 0.03 | 71 | 1004.5 |
| 20260504110451 | 13 | 189 | 6.4 | 6.4 | 0.00 | 0.03 | 0.03 | 80 | 1004.5 |
| 20260504100407 | 12 | 146 | 0.0 | 0.0 | 0.00 | 0.03 | 0.03 | 81 | 1005.3 |
| 20260504081754 | 12 | 165 | 0.0 | 3.2 | 0.00 | 0.03 | 0.03 | 83 | 1006.6 |
| 20260504081251 | 12 | 168 | 0.0 | 1.6 | 0.00 | 0.03 | 0.03 | 84 | 1006.6 |
| 20260504080748 | 12 | 158 | 0.0 | 1.6 | 0.00 | 0.03 | 0.03 | 87 | 1006.7 |
| 20260504080244 | 12 | 110 | 0.0 | 1.6 | 0.00 | 0.03 | 0.03 | 90 | 1006.7 |
| 20260504070211 | 13 | 152 | 0.0 | 0.0 | 0.00 | 0.03 | 0.03 | 82 | 1007.5 |
| 20260504060132 | 13 | 2 | 3.2 | 3.2 | 0.00 | 0.03 | 0.03 | 83 | 1008.3 |
| 20260504050600 | 14 | 171 | 1.6 | 1.6 | 0.00 | 0.00 | 0.00 | 70 | 1008.9 |
| 20260504045554 | 14 | 153 | 0.0 | 0.0 | 0.00 | 0.00 | 0.00 | 69 | 1008.6 |
| 20260504045049 | 14 | 152 | 0.0 | 0.0 | 0.00 | 0.00 | 0.00 | 71 | 1008.7 |
| 20260504044547 | 15 | 156 | 0.0 | 1.6 | 0.00 | 0.00 | 0.00 | 70 | 1008.9 |
| 20260504044043 | 15 | 124 | 0.0 | 0.0 | 0.00 | 0.00 | 0.00 | 70 | 1009.2 |
| 20260504043541 | 15 | 168 | 0.0 | 0.0 | 0.00 | 0.00 | 0.00 | 66 | 1009.2 |
| 20260504043038 | 14 | 172 | 1.6 | 4.8 | 0.00 | 0.00 | 0.00 | 65 | 1009.5 |
| 20260504042535 | 15 | 168 | 1.6 | 3.2 | 0.00 | 0.00 | 0.00 | 68 | 1009.2 |
| 20260504042032 | 15 | 170 | 0.0 | 0.0 | 0.00 | 0.00 | 0.00 | 67 | 1009.3 |
| 20260504041528 | 15 | 170 | 0.0 | 0.0 | 0.00 | 0.00 | 0.00 | 66 | 1009.2 |
| 20260504041024 | 15 | 170 | 0.0 | 0.0 | 0.00 | 0.00 | 0.00 | 66 | 1009.1 |
| 20260504040522 | 15 | 170 | 0.0 | 0.0 | 0.00 | 0.00 | 0.00 | 68 | 1009.2 |
| 20260504040018 | 15 | 170 | 0.0 | 0.0 | 0.00 | 0.00 | 0.00 | 65 | 1009.1 |
| 20260504035515 | 15 | 171 | 0.0 | 1.6 | 0.00 | 0.00 | 0.00 | 66 | 1009.2 |
| 20260504035011 | 15 | 171 | 0.0 | 0.0 | 0.00 | 0.00 | 0.00 | 64 | 1009.4 |
| 20260504034509 | 15 | 171 | 0.0 | 1.6 | 0.00 | 0.00 | 0.00 | 64 | 1009.3 |
| 20260504034006 | 15 | 170 | 1.6 | 1.6 | 0.00 | 0.00 | 0.00 | 64 | 1009.6 |
| 20260504033504 | 15 | 135 | 0.0 | 0.0 | 0.00 | 0.00 | 0.00 | 63 | 1009.3 |
| 20260504033001 | 15 | 135 | 0.0 | 0.0 | 0.00 | 0.00 | 0.00 | 59 | 1009.3 |
| 20260504032458 | 15 | 167 | 0.0 | 3.2 | 0.00 | 0.00 | 0.00 | 62 | 1009.5 |
| 20260504031954 | 15 | 155 | 3.2 | 3.2 | 0.00 | 0.00 | 0.00 | 56 | 1009.6 |
| 20260504031451 | 14 | 109 | 0.0 | 0.0 | 0.00 | 0.00 | 0.00 | 67 | 1009.2 |
| 20260504030948 | 15 | 108 | 0.0 | 0.0 | 0.00 | 0.00 | 0.00 | 69 | 1009.4 |
| 20260504030445 | 15 | 108 | 0.0 | 0.0 | 0.00 | 0.00 | 0.00 | 67 | 1009.3 |
| 20260504025941 | 15 | 108 | 0.0 | 0.0 | 0.00 | 0.00 | 0.00 | 65 | 1009.5 |